Flag for South Africa Weather past 2 weeks in Port Elizabeth, South Africa

Now
79 °F

Sunny.


Feels Like: 81 °F
Forecast: 67 / 77 °F
Wind: 21 mph from East

Location: Port Elizabeth Airport

Current Time: Jan 30, 2015 at 3:36:24 PM

Latest Report: Jan 30, 2015 at 3:00 PM


Visibility: 10 mi

Pressure: 29.74 "Hg

Humidity: 61%

Dew point: 64 °F

Location of Port ElizabethLocation

Historic Weather in Port Elizabeth — Graph

°F

Port Elizabeth temperature yesterday

Maximum temperature yesterday: 77 °F (at 1:00 PM)
Minimum temperature yesterday: 64 °F (at 1:00 AM)
Average temperature yesterday: 70 °F

Past Weeks' High & Low Weather Summary

 TemperatureHumidityPressure
High84 °F (Jan 15, 2:00 PM)94% (Jan 18, 11:00 PM)30.18 "Hg (Jan 18, 11:00 PM)
Low52 °F (Jan 20, 6:00 AM)50% (Jan 19, 1:00 PM)29.59 "Hg (Jan 15, 5:00 PM)
Average70 °F76%29.96 "Hg
* Reported Jan 15 2:00 PM — Jan 30 2:00 PM, Port Elizabeth, Weather by CustomWeather, © 2014

Note: Actual official high and low records may vary slightly from our data, if they occured in-between our weather recording intervals... More about our weather records

Advertising

Port Elizabeth weather history for previous 24 hours

 ConditionsComfort  
Time TempWeatherWind HumidityBarometerVisibility
2:00 PM
Jan 30
79 °FSunny.23 mph58%29.77 "Hg10 mi
1:00 PM81 °FSunny.20 mph58%29.77 "Hg10 mi
12:00 PM79 °FSunny.16 mph61%29.80 "Hg10 mi
11:00 AM73 °FSunny.15 mph69%29.83 "Hg10 mi
10:00 AM72 °FSunny.15 mph73%29.83 "Hg10 mi
9:00 AM72 °FSunny.14 mph73%29.83 "Hg10 mi
8:00 AM68 °FSunny.13 mph78%29.86 "Hg10 mi
7:00 AM66 °FSunny.12 mph83%29.86 "Hg10 mi
6:00 AM64 °FSunny.13 mph88%29.83 "Hg10 mi
5:00 AM64 °FSunny.12 mph88%29.86 "Hg10 mi
4:00 AM66 °FClear.12 mph83%29.86 "Hg10 mi
3:00 AM66 °FClear.12 mph88%29.86 "Hg10 mi
2:00 AM68 °FClear.13 mph83%29.86 "Hg10 mi
1:00 AM68 °FClear.16 mph83%29.89 "Hg10 mi
12:00 AM68 °FClear.17 mph83%29.92 "Hg10 mi
11:00 PM
Jan 29
68 °FClear.17 mph83%29.92 "Hg10 mi
10:00 PM68 °FClear.18 mph83%29.92 "Hg10 mi
9:00 PM70 °FClear.18 mph78%29.92 "Hg10 mi
8:00 PM70 °FClear.18 mph73%29.92 "Hg10 mi
7:00 PM72 °FClear.21 mph69%29.92 "Hg10 mi
6:00 PM73 °FSunny.24 mph65%29.92 "Hg10 mi
5:00 PM73 °FSunny.25 mph65%29.92 "Hg10 mi
4:00 PM75 °FPassing clouds.25 mph65%29.92 "HgN/A
3:00 PM77 °FPassing clouds.30 mph65%29.95 "HgN/A
Weather by CustomWeather, © 2014

See weather overviewHow to use our weather pages